Dewpoint
27 26 23 20 20 18 18 18 18 19 18 17 18 19 19 22 24 20 24 22 23 25
20 20 19 16 17 18 16 12 15 16 15 16 16 16 16 18 18 19 20 22 23 22
15 14 14 14 12 13 13 13 14 14 13 13 14 14 14 17 18 16 17 18 18 18
14 12 11 11 11 10 11 11 12 12 12 12 12 12 13 14 14 13 14 15 15 17
13 12 10 10 10 10 10 11 11 12 12 12 13 13 13 13 13 13 13 14 16 18
13 12 11 11 11 11 11 11 13 13 14 14 16 15 14 14 13 15 16 18 19 20
12 13 12 13 13 13 13 13 14 15 15 17 16 16 15 14 17 18 19 22 23 22
14 14 14 15 15 14 15 15 16 15 16 17 16 14 15 17 19 20 21 22 22 22
14 14 15 15 14 14 15 14 14 14 17 20 13 23 24 22 19 20 21 21 22 21
13 13 14 13 12 13 12 12 13 14 14 13 12 22 24 24 18 20 21 21 20 18
13 11 12 11 11 11 11 12 13 13 13 12 11 22 22 23 19 21 21 21 20 19
10 10 10 10 10 10 13 14 14 12 11 10 9 21 21 21 19 20 20 20 20 21
10 10 9 9 10 13 15 14 12 11 10 15 8 19 22 21 18 18 20 21 22 27
9 9 8 10 13 15 15 13 12 10 8 7 11 15 23 24 18 19 21 22 24 23
Lifted_Index
8 8 9 9 9 10 10 11 13 15 17 19 20 21 22 21 21 21 21 21 20 20
8 9 9 9 10 10 11 12 14 16 18 20 21 21 21 21 21 20 20 20 20 20
9 9 10 10 10 11 12 14 16 18 19 20 21 21 21 20 20 20 20 20 20 20
10 10 10 10 11 12 14 16 17 19 20 21 21 20 20 20 20 20 20 20 21 21
10 10 11 11 12 13 15 17 19 20 20 20 20 20 20 20 20 20 20 21 21 21
10 11 11 12 13 15 16 18 19 20 20 20 19 19 20 20 20 20 20 21 21 21
11 11 11 12 14 15 17 19 20 20 20 19 19 19 20 20 20 20 20 21 20 20
11 11 12 13 14 17 18 19 20 19 19 19 19 20 20 20 20 20 20 20 19 18
11 12 12 14 16 18 19 19 19 19 19 19 20 20 20 20 20 20 20 19 18 17
12 12 13 15 17 19 19 19 18 18 19 20 20 20 20 20 20 20 19 18 17 16
12 12 14 16 18 19 19 18 18 19 19 20 20 21 21 20 19 19 18 16 15 14
13 14 15 18 19 19 18 18 18 19 19 20 20 21 20 19 18 17 16 14 13 12
14 16 17 19 19 18 18 18 19 19 20 20 21 21 20 18 17 15 14 13 12 12
16 17 19 19 19 18 18 18 19 19 20 20 21 20 19 17 15 14 13 13 13 13